Visibility
15.0 15.0 15.0 15.0 15.0 15.0 15.0 15.0 15.0 15.0 15.0 15.0 15.0 15.0 14.7 15.0 9.6 11.3 0.3 11.3 3.2 0.0 7.5 15.0 15.0 15.0 11.0 15.0 5.0 14.4 0.1 0.1 0.1 0.1 0.2 14.4 14.9 14.7 6.5 15.0 0.2 0.2 7.5 0.4 0.9 0.2 2.5 15.0 15.0 15.0 15.0 15.0 15.0 15.0
15.0 15.0 15.0 15.0 15.0 15.0 15.0 15.0 15.0 15.0 15.0 15.0 15.0 14.1 15.0 15.0 8.1 9.2 2.3 11.2 4.6 1.0 15.0 15.0 15.0 15.0 15.0 10.8 0.0 2.8 0.2 0.3 0.0 0.7 15.0 15.0 2.4 6.8 8.2 0.3 7.7 14.6 6.9 13.6 13.9 14.1 15.0 15.0 15.0 15.0 15.0 15.0 15.0 15.0
15.0 15.0 15.0 15.0 15.0 15.0 15.0 15.0 15.0 15.0 15.0 15.0 15.0 15.0 15.0 10.0 7.9 15.0 2.6 0.5 0.2 0.0 12.7 3.7 15.0 15.0 15.0 15.0 7.6 1.9 14.9 15.0 15.0 14.4 15.0 15.0 15.0 15.0 15.0 12.9 15.0 15.0 15.0 15.0 15.0 15.0 15.0 15.0 15.0 15.0 15.0 15.0 15.0 15.0
15.0 15.0 15.0 15.0 15.0 15.0 15.0 15.0 15.0 15.0 15.0 10.0 13.8 15.0 15.0 15.0 14.9 15.0 15.0 15.0 15.0 2.7 0.4 15.0 15.0 15.0 15.0 15.0 15.0 14.8 10.4 15.0 15.0 15.0 15.0 15.0 15.0 15.0 15.0 15.0 15.0 15.0 15.0 15.0 15.0 15.0 15.0 15.0 15.0 15.0 15.0 15.0 15.0 15.0
15.0 15.0 15.0 15.0 15.0 15.0 15.0 15.0 15.0 15.0 15.0 15.0 14.3 14.7 15.0 15.0 15.0 15.0 15.0 15.0 15.0 0.2 2.1 13.0 15.0 15.0 15.0 15.0 15.0 15.0 15.0 15.0 15.0 15.0 15.0 15.0 15.0 15.0 15.0 15.0 15.0 15.0 15.0 15.0 15.0 15.0 15.0 15.0 15.0 15.0 15.0 15.0 15.0 15.0
15.0 15.0 15.0 15.0 15.0 15.0 15.0 15.0 15.0 15.0 15.0 15.0 15.0 15.0 15.0 15.0 15.0 15.0 0.6 6.7 15.0 15.0 0.2 0.5 15.0 12.4 15.0 15.0 15.0 15.0 15.0 15.0 15.0 15.0 15.0 15.0 15.0 15.0 15.0 15.0 15.0 15.0 15.0 15.0 15.0 15.0 15.0 15.0 15.0 15.0 15.0 15.0 15.0 15.0
15.0 15.0 15.0 15.0 15.0 15.0 15.0 15.0 15.0 15.0 15.0 15.0 15.0 15.0 15.0 15.0 15.0 15.0 12.3 15.0 15.0 15.0 0.2 0.7 14.8 15.0 14.2 15.0 15.0 13.0 11.4 13.2 12.8 13.1 15.0 15.0 15.0 15.0 15.0 15.0 15.0 15.0 15.0 15.0 15.0 15.0 15.0 15.0 15.0 15.0 15.0 15.0 15.0 15.0
15.0 15.0 15.0 15.0 15.0 15.0 15.0 15.0 15.0 15.0 15.0 15.0 15.0 15.0 15.0 15.0 15.0 15.0 15.0 15.0 15.0 15.0 15.0 11.9 15.0 15.0 14.2 15.0 14.1 13.1 13.1 11.4 15.0 15.0 15.0 15.0 15.0 15.0 15.0 15.0 15.0 15.0 15.0 15.0 15.0 15.0 15.0 15.0 15.0 15.0 15.0 15.0 15.0 15.0
15.0 15.0 15.0 15.0 15.0 15.0 15.0 15.0 15.0 15.0 15.0 15.0 15.0 15.0 15.0 15.0 15.0 15.0 15.0 15.0 15.0 7.3 0.1 10.7 15.0 15.0 15.0 15.0 15.0 14.9 15.0 15.0 15.0 15.0 15.0 15.0 15.0 15.0 15.0 15.0 15.0 15.0 13.8 15.0 15.0 15.0 15.0 15.0 15.0 15.0 15.0 15.0 15.0 15.0
15.0 15.0 15.0 15.0 15.0 15.0 15.0 15.0 15.0 15.0 15.0 15.0 15.0 15.0 15.0 15.0 15.0 15.0 14.9 1.2 12.2 8.0 8.7 9.6 15.0 14.7 14.9 15.0 15.0 15.0 15.0 15.0 15.0 15.0 15.0 13.9 14.9 15.0 15.0 15.0 15.0 15.0 15.0 15.0 15.0 14.5 0.0 14.5 14.7 7.2 15.0 15.0 15.0 15.0
15.0 15.0 15.0 15.0 15.0 15.0 15.0 15.0 15.0 15.0 15.0 15.0 14.6 15.0 15.0 15.0 15.0 15.0 14.1 2.6 15.0 11.4 2.1 2.9 3.3 11.0 15.0 15.0 15.0 14.4 15.0 15.0 5.9 15.0 15.0 12.3 5.9 15.0 15.0 14.0 15.0 15.0 15.0 15.0 15.0 5.2 5.6 15.0 7.0 14.8 15.0 15.0 14.2 1.6
15.0 15.0 15.0 15.0 15.0 15.0 15.0 15.0 15.0 15.0 15.0 15.0 15.0 15.0 15.0 15.0 15.0 15.0 13.8 15.0 15.0 10.3 15.0 14.9 13.4 15.0 15.0 15.0 15.0 15.0 15.0 15.0 15.0 15.0 13.9 8.9 14.9 15.0 15.0 15.0 15.0 15.0 15.0 15.0 15.0 14.6 13.9 15.0 15.0 15.0 15.0 15.0 15.0 1.3
15.0 15.0 15.0 15.0 15.0 15.0 15.0 15.0 15.0 15.0 15.0 15.0 1.7 3.1 15.0 15.0 15.0 15.0 15.0 14.1 15.0 14.8 14.6 14.2 15.0 15.0 15.0 15.0 15.0 15.0 7.3 5.9 15.0 14.5 11.1 15.0 14.8 15.0 15.0 15.0 15.0 15.0 14.8 15.0 15.0 15.0 15.0 15.0 15.0 5.2 0.1 0.1 13.4 0.8
15.0 15.0 15.0 15.0 15.0 15.0 15.0 15.0 15.0 15.0 15.0 14.5 15.0 1.0 15.0 15.0 14.6 15.0 15.0 15.0 15.0 15.0 15.0 15.0 15.0 15.0 13.6 15.0 15.0 0.5 15.0 15.0 13.9 2.8 15.0 7.0 15.0 15.0 15.0 15.0 15.0 15.0 15.0 15.0 14.3 13.4 0.1 2.2 0.6 15.0 0.1 0.1 0.1 0.1
15.0 15.0 15.0 15.0 15.0 15.0 15.0 15.0 15.0 15.0 15.0 15.0 15.0 15.0 15.0 15.0 15.0 15.0 15.0 15.0 15.0 15.0 15.0 15.0 15.0 15.0 10.6 13.9 14.1 14.7 11.6 6.1 15.0 15.0 7.0 14.1 15.0 15.0 15.0 15.0 15.0 15.0 15.0 15.0 15.0 9.3 1.4 0.0 0.2 3.6 0.3 0.2 0.3 1.9
15.0 15.0 15.0 15.0 15.0 15.0 15.0 15.0 15.0 15.0 15.0 15.0 15.0 15.0 15.0 15.0 15.0 15.0 15.0 15.0 15.0 15.0 13.2 11.9 15.0 15.0 7.5 9.6 0.8 10.9 15.0 15.0 15.0 6.8 1.6 0.8 7.6 15.0 15.0 15.0 15.0 15.0 15.0 15.0 15.0 15.0 0.5 14.9 0.1 0.1 0.1 0.0 0.5 0.4
15.0 15.0 15.0 15.0 15.0 15.0 15.0 15.0 15.0 15.0 15.0 15.0 15.0 15.0 15.0 15.0 15.0 15.0 15.0 15.0 15.0 15.0 15.0 9.9 0.1 1.7 15.0 1.0 2.0 1.7 0.2 1.5 1.0 8.4 14.7 15.0 15.0 15.0 15.0 15.0 15.0 15.0 15.0 15.0 15.0 15.0 0.3 0.0 0.0 0.0 0.1 0.1 0.0 0.1
15.0 15.0 15.0 15.0 15.0 15.0 15.0 15.0 15.0 15.0 15.0 15.0 15.0 15.0 15.0 15.0 15.0 15.0 15.0 15.0 15.0 15.0 15.0 15.0 15.0 13.3 15.0 15.0 4.9 0.7 1.8 5.1 2.3 1.8 15.0 15.0 15.0 15.0 15.0 15.0 15.0 15.0 15.0 15.0 15.0 14.3 15.0 15.0 3.7 0.1 0.0 0.2 0.1 0.1
15.0 15.0 15.0 15.0 15.0 15.0 15.0 15.0 15.0 15.0 15.0 15.0 15.0 15.0 15.0 15.0 15.0 15.0 15.0 15.0 15.0 15.0 15.0 15.0 3.2 0.3 0.6 0.2 0.1 0.1 0.1 0.2 0.1 1.6 11.0 15.0 15.0 15.0 15.0 15.0 15.0 15.0 15.0 15.0 15.0 14.4 4.8 13.9 9.3 3.9 1.5 0.0 0.1 1.7
15.0 15.0 15.0 15.0 15.0 15.0 15.0 15.0 15.0 15.0 15.0 15.0 15.0 15.0 15.0 15.0 15.0 15.0 15.0 15.0 15.0 15.0 13.4 0.5 5.7 2.5 1.8 0.3 0.1 0.1 0.4 0.1 0.0 0.1 1.0 0.6 14.6 15.0 15.0 15.0 15.0 15.0 15.0 15.0 15.0 15.0 15.0 15.0 15.0 13.1 2.6 0.9 0.0 0.0
15.0 15.0 15.0 15.0 15.0 15.0 15.0 15.0 15.0 15.0 15.0 15.0 15.0 15.0 15.0 15.0 15.0 15.0 15.0 15.0 11.0 15.0 0.9 5.8 9.0 14.9 1.9 1.1 15.0 15.0 12.0 5.6 0.3 0.2 0.1 0.1 0.4 15.0 15.0 15.0 15.0 15.0 12.3 15.0 14.9 12.0 15.0 15.0 15.0 9.4 3.4 12.3 3.0 1.0
15.0 15.0 15.0 15.0 15.0 15.0 6.2 15.0 15.0 15.0 15.0 15.0 15.0 15.0 15.0 15.0 15.0 15.0 15.0 15.0 5.6 2.3 1.8 2.7 15.0 15.0 15.0 15.0 15.0 15.0 9.7 15.0 12.7 15.0 12.7 0.1 0.1 0.1 0.1 2.6 1.6 5.5 14.7 14.8 9.0 11.5 8.8 12.4 15.0 15.0 3.1 5.6 15.0 6.6
15.0 15.0 15.0 15.0 14.0 10.9 13.7 15.0 15.0 15.0 15.0 15.0 15.0 15.0 15.0 15.0 15.0 15.0 15.0 6.6 5.7 5.5 12.5 15.0 15.0 15.0 15.0 15.0 15.0 14.0 15.0 15.0 8.8 6.0 13.8 1.1 0.1 0.1 0.1 0.1 0.1 0.2 0.8 1.9 12.2 0.2 0.4 13.7 15.0 15.0 12.6 6.2 15.0 15.0
15.0 15.0 14.1 15.0 8.3 1.7 15.0 14.2 12.1 15.0 15.0 15.0 15.0 15.0 15.0 15.0 15.0 15.0 15.0 9.0 4.2 10.0 15.0 15.0 15.0 15.0 15.0 15.0 0.5 0.2 12.2 12.7 8.7 12.3 3.8 0.7 1.0 0.2 0.1 0.1 0.1 0.1 0.1 0.3 0.9 6.2 6.5 4.4 6.9 15.0 15.0 14.6 8.5 2.0
0.1 1.4 14.3 6.3 14.6 0.6 0.6 8.3 15.0 15.0 15.0 15.0 15.0 15.0 15.0 15.0 15.0 15.0 14.5 2.8 4.2 5.0 13.9 15.0 15.0 15.0 9.4 2.0 0.7 6.5 15.0 10.2 4.3 2.1 11.0 1.2 0.2 0.1 0.1 0.1 0.1 0.1 0.4 0.5 1.1 5.9 5.4 11.1 14.7 15.0 14.9 13.6 13.3 4.5
0.5 15.0 5.2 15.0 15.0 5.6 14.3 7.9 15.0 15.0 15.0 15.0 15.0 15.0 15.0 15.0 15.0 15.0 15.0 3.7 3.8 9.0 8.1 15.0 15.0 15.0 6.0 12.5 6.0 5.3 8.3 10.3 7.2 0.6 0.2 0.7 0.1 0.1 0.1 0.1 0.1 0.1 0.1 0.2 5.3 5.2 5.5 5.4 5.6 11.5 5.8 1.6 1.6 3.9
7.9 15.0 15.0 15.0 15.0 15.0 15.0 15.0 15.0 15.0 15.0 15.0 15.0 15.0 15.0 15.0 15.0 15.0 14.8 5.7 12.5 14.8 15.0 15.0 15.0 15.0 14.3 5.7 14.0 10.6 6.8 10.0 10.9 5.6 0.9 0.1 0.1 0.1 0.1 0.1 0.6 0.6 0.2 0.4 4.2 5.4 2.7 3.8 4.4 6.4 4.1 2.2 1.2 0.2
12.1 15.0 10.9 15.0 15.0 15.0 15.0 15.0 15.0 15.0 15.0 15.0 15.0 15.0 15.0 15.0 15.0 15.0 15.0 15.0 15.0 15.0 15.0 15.0 15.0 15.0 15.0 8.9 6.6 4.4 4.2 4.4 14.9 2.6 0.1 0.3 0.6 0.2 0.1 0.1 0.1 0.5 5.1 13.0 7.8 5.3 4.8 5.0 2.8 1.6 0.3 0.3 0.1 0.2
15.0 15.0 15.0 15.0 15.0 7.7 15.0 15.0 15.0 15.0 15.0 15.0 15.0 15.0 15.0 15.0 15.0 12.6 11.3 15.0 15.0 15.0 15.0 15.0 5.9 5.3 7.9 4.2 3.9 4.1 4.1 4.1 8.7 0.3 0.2 0.8 1.5 0.4 0.6 0.4 3.8 5.6 5.2 5.4 15.0 6.3 1.5 1.4 0.9 0.2 0.2 0.6 2.0 4.3
15.0 15.0 10.9 10.3 0.4 0.4 14.6 15.0 15.0 13.7 15.0 15.0 15.0 15.0 15.0 15.0 15.0 12.0 15.0 15.0 15.0 15.0 15.0 15.0 12.9 15.0 10.4 4.0 1.4 2.1 4.0 4.1 4.1 3.3 0.9 0.8 0.9 0.5 3.4 4.0 4.1 4.3 4.5 4.1 11.8 10.2 9.3 15.0 12.8 2.9 1.3 2.2 4.0 4.1
15.0 15.0 10.3 0.3 0.2 15.0 15.0 5.2 11.7 9.9 15.0 15.0 8.8 15.0 15.0 15.0 15.0 15.0 15.0 15.0 15.0 11.7 13.6 4.0 1.5 7.4 4.3 4.1 4.1 2.7 0.9 3.7 8.7 14.2 5.1 3.9 3.4 3.4 4.1 4.0 3.2 4.1 4.1 4.1 2.6 3.8 11.8 15.0 4.4 4.1 3.5 1.2 1.2 3.8
5.5 1.1 0.4 0.2 0.3 3.0 14.5 15.0 7.7 15.0 7.7 8.9 15.0 5.8 14.8 15.0 15.0 15.0 6.7 15.0 4.1 4.7 4.7 13.3 15.0 10.4 6.8 5.1 4.6 6.2 15.0 5.5 4.1 4.4 4.7 4.1 4.1 4.9 4.1 3.6 4.1 4.2 7.2 4.3 14.3 15.0 15.0 15.0 4.0 3.2 2.8 2.6 3.1 4.1
0.3 0.1 0.1 0.1 0.1 0.1 0.1 0.2 4.1 15.0 15.0 4.2 15.0 13.3 12.8 14.8 15.0 15.0 7.8 8.1 15.0 15.0 15.0 15.0 15.0 15.0 15.0 15.0 15.0 5.7 5.5 8.2 5.5 7.6 4.1 4.1 4.1 4.1 4.1 4.1 4.1 9.2 14.0 15.0 5.4 8.5 13.1 12.4 3.8 4.0 15.0 5.2 3.8 3.6